Tracking 22993 objects as of 11-May-2021
HD Live streaming from Space Station
objects crossing your sky now

H-2A R/B

Track H-2A R/B now!
10-day predictions


NORAD ID: 36105
Int'l Code: 2009-066B
Perigee: 507.8 km
Apogee: 545.2 km
Inclination: 97.3 °
Period: 95.0 minutes
Semi major axis: 6897 km
RCS: Unknown
Launch date: November 28, 2009
Source: Japan (JPN)
Launch site: TANEGASHIMA SPACE CENTER (TNSTA)

Note: This is a ROCKET BODY
aabbcc
Your satellite tracking list
Your tracking list is empty




NASA's NSSDC Master Catalog

Two Line Element Set (TLE):
1 36105U 09066B   21071.17865018 0.00001334  00000-0  69881-4 0    03
2 36105  97.2960  67.0688 0027101 279.4955  80.4848 15.15523552    03
Source of the keplerian elements: McCants